Terminal Aerodrome Forecast
Issued by NWS Shreveport, LA

Home | Current Version | Previous Version | Text Only | Print | Product List | Glossary On
Versions: 1 2 3 4 5 6 7 8 9 10 11 12 13
000
FTUS44 KSHV 290520
TAFELD
TAF
KELD 290520Z 2906/3006 16004KT P6SM SKC
      TEMPO 2910/2913 5SM BR BKN015
     FM291300 13005KT 3SM BR BKN008 OVC015
     FM291500 15008KT P6SM OVC015
     FM291900 15007KT P6SM VCTS BKN025CB
     FM292200 15008KT P6SM VCTS OVC050CB
     FM300000 14004KT P6SM SCT025
     FM300400 14004KT P6SM OVC025=

USA.gov is the U.S. government's official web portal to all federal, state and local government web resources and services.